Wetterdaten: Woche 30.01.17 - 05.02.17 (KW5)
Datum Zeit Temp. Auen Feucht Auen Luftdruck Regen Richtung Windben
30.01.2017 00:00 -8,5 C 94 % 1026,5 hPa 0,0 mm W-SW 0,1 km/h (0 Bft)
30.01.2017 01:00 -8,1 C 94 % 1026,1 hPa 0,0 mm W-SW 0,0 km/h (0 Bft)
30.01.2017 02:00 -7,6 C 94 % 1025,8 hPa 0,0 mm W-SW 0,0 km/h (0 Bft)
30.01.2017 03:00 -6,9 C 95 % 1025,6 hPa 0,0 mm W-SW 1,3 km/h (1 Bft)
30.01.2017 04:00 -6,5 C 95 % 1025,2 hPa 0,0 mm W-SW 0,4 km/h (0 Bft)
30.01.2017 05:00 -6,1 C 95 % 1024,8 hPa 0,0 mm W-SW 0,0 km/h (0 Bft)
30.01.2017 06:00 -6,1 C 95 % 1024,7 hPa 0,0 mm W-SW 0,0 km/h (0 Bft)
30.01.2017 07:00 -6,0 C 95 % 1024,6 hPa 0,0 mm W-SW 0,0 km/h (0 Bft)
30.01.2017 08:00 -6,2 C 95 % 1024,6 hPa 0,0 mm W-SW 0,3 km/h (0 Bft)
30.01.2017 09:00 -5,8 C 95 % 1024,2 hPa 0,0 mm W-SW 1,7 km/h (1 Bft)
30.01.2017 10:00 -4,8 C 95 % 1023,6 hPa 0,0 mm W-SW 1,1 km/h (0 Bft)
30.01.2017 11:00 -3,9 C 95 % 1022,8 hPa 0,0 mm SO 5,9 km/h (2 Bft)
30.01.2017 12:00 -2,9 C 95 % 1021,7 hPa 0,0 mm O-SO 8,8 km/h (2 Bft)
30.01.2017 13:00 -2,6 C 95 % 1020,9 hPa 0,0 mm SO 8,8 km/h (2 Bft)
30.01.2017 14:00 -2,6 C 95 % 1020,2 hPa 0,0 mm O-SO 8,6 km/h (2 Bft)
30.01.2017 15:00 -2,8 C 95 % 1020,0 hPa 0,0 mm SO 7,2 km/h (2 Bft)
30.01.2017 16:00 -2,9 C 95 % 1020,2 hPa 0,0 mm O-SO 6,0 km/h (2 Bft)
30.01.2017 17:00 -3,0 C 95 % 1020,4 hPa 0,0 mm S 5,5 km/h (1 Bft)
30.01.2017 18:00 -3,1 C 95 % 1020,6 hPa 0,0 mm O-SO 6,0 km/h (2 Bft)
30.01.2017 19:00 -3,0 C 95 % 1020,2 hPa 0,0 mm O-SO 4,9 km/h (1 Bft)
30.01.2017 20:00 -2,9 C 95 % 1019,9 hPa 0,0 mm O-SO 4,1 km/h (1 Bft)
30.01.2017 21:00 -2,7 C 95 % 1019,6 hPa 0,0 mm O-SO 4,8 km/h (1 Bft)
30.01.2017 22:00 -2,3 C 95 % 1019,5 hPa 0,0 mm O-SO 5,2 km/h (1 Bft)
30.01.2017 23:00 -2,1 C 95 % 1019,3 hPa 0,0 mm SO 4,8 km/h (1 Bft)
31.01.2017 00:00 -1,8 C 95 % 1019,2 hPa 0,6 mm SO 0,0 km/h (0 Bft)
31.01.2017 01:00 -1,3 C 95 % 1019,1 hPa 0,6 mm SO 0,8 km/h (0 Bft)
31.01.2017 02:00 -1,1 C 95 % 1018,9 hPa 0,6 mm S-SO 4,9 km/h (1 Bft)
31.01.2017 03:00 -0,9 C 95 % 1018,2 hPa 0,2 mm S-SO 1,2 km/h (1 Bft)
31.01.2017 04:00 -0,3 C 96 % 1018,0 hPa 0,6 mm SW 1,5 km/h (1 Bft)
31.01.2017 05:00 0,1 C 96 % 1017,8 hPa 0,4 mm SW 0,5 km/h (0 Bft)
31.01.2017 06:00 0,2 C 96 % 1017,5 hPa 0,2 mm SW 0,3 km/h (0 Bft)
31.01.2017 07:00 0,5 C 96 % 1017,0 hPa 0,2 mm SW 0,8 km/h (0 Bft)
31.01.2017 08:00 0,6 C 96 % 1016,9 hPa 0,2 mm SW 0,9 km/h (0 Bft)
31.01.2017 09:00 0,8 C 96 % 1017,1 hPa 1,6 mm SW 1,3 km/h (1 Bft)
31.01.2017 10:00 1,1 C 96 % 1017,2 hPa 2,6 mm S 2,0 km/h (1 Bft)
31.01.2017 11:00 1,3 C 96 % 1017,0 hPa 1,0 mm S-SW 1,9 km/h (1 Bft)
31.01.2017 12:00 1,7 C 96 % 1017,1 hPa 1,6 mm S-SW 2,4 km/h (1 Bft)
31.01.2017 13:00 1,7 C 96 % 1017,2 hPa 1,8 mm SW 0,7 km/h (0 Bft)
31.01.2017 14:00 1,7 C 96 % 1017,2 hPa 1,4 mm SW 1,3 km/h (1 Bft)
31.01.2017 15:00 1,7 C 96 % 1017,0 hPa 0,6 mm SW 0,1 km/h (0 Bft)
31.01.2017 16:00 1,5 C 96 % 1017,1 hPa 0,4 mm SW 0,8 km/h (0 Bft)
31.01.2017 17:00 1,3 C 96 % 1017,4 hPa 0,4 mm SW 0,7 km/h (0 Bft)
31.01.2017 18:00 1,2 C 96 % 1017,7 hPa 0,2 mm SW 0,7 km/h (0 Bft)
31.01.2017 19:00 1,2 C 96 % 1017,5 hPa 0,8 mm SW 1,6 km/h (1 Bft)
31.01.2017 20:00 1,2 C 96 % 1017,9 hPa 0,8 mm W 3,7 km/h (1 Bft)
31.01.2017 21:00 1,4 C 96 % 1018,3 hPa 0,2 mm O-NO 1,9 km/h (1 Bft)
31.01.2017 22:00 1,1 C 96 % 1018,6 hPa 0,4 mm W-SW 0,1 km/h (0 Bft)
31.01.2017 23:00 0,8 C 96 % 1019,0 hPa 0,2 mm W-SW 0,0 km/h (0 Bft)
01.02.2017 00:00 0,7 C 96 % 1019,3 hPa 0,0 mm W-SW 2,1 km/h (1 Bft)
01.02.2017 01:00 0,6 C 96 % 1019,4 hPa 0,0 mm W-SW 1,9 km/h (1 Bft)
01.02.2017 02:00 0,6 C 96 % 1019,9 hPa 0,2 mm W-SW 2,3 km/h (1 Bft)
01.02.2017 03:00 0,4 C 96 % 1020,1 hPa 0,2 mm W-SW 1,7 km/h (1 Bft)
01.02.2017 04:00 0,3 C 96 % 1020,2 hPa 0,2 mm W-SW 0,4 km/h (0 Bft)
01.02.2017 05:00 0,3 C 96 % 1020,1 hPa 0,0 mm W-SW 0,0 km/h (0 Bft)
01.02.2017 06:00 0,2 C 96 % 1019,9 hPa 0,0 mm W-SW 1,7 km/h (1 Bft)
01.02.2017 07:00 0,2 C 96 % 1020,1 hPa 0,0 mm W-SW 0,0 km/h (0 Bft)
01.02.2017 08:00 0,3 C 96 % 1020,4 hPa 0,0 mm W-SW 0,1 km/h (0 Bft)
01.02.2017 09:00 0,4 C 96 % 1020,6 hPa 0,0 mm W-SW 1,1 km/h (0 Bft)
01.02.2017 10:00 0,4 C 96 % 1020,6 hPa 0,2 mm W-SW 2,3 km/h (1 Bft)
01.02.2017 11:00 0,7 C 96 % 1020,4 hPa 0,0 mm O-NO 6,4 km/h (2 Bft)
01.02.2017 12:00 0,9 C 96 % 1020,0 hPa 0,0 mm O 3,6 km/h (1 Bft)
01.02.2017 13:00 0,9 C 96 % 1019,7 hPa 0,2 mm O 3,6 km/h (1 Bft)
01.02.2017 14:00 0,8 C 96 % 1019,4 hPa 0,0 mm SO 3,9 km/h (1 Bft)
01.02.2017 15:00 0,8 C 96 % 1019,2 hPa 0,0 mm SO 4,1 km/h (1 Bft)
01.02.2017 16:00 0,8 C 96 % 1019,6 hPa 0,0 mm SO 0,1 km/h (0 Bft)
01.02.2017 17:00 0,8 C 96 % 1020,1 hPa 0,0 mm SO 0,3 km/h (0 Bft)
01.02.2017 18:00 0,7 C 96 % 1020,3 hPa 0,0 mm O 4,8 km/h (1 Bft)
01.02.2017 19:00 0,6 C 96 % 1020,1 hPa 0,0 mm O 4,5 km/h (1 Bft)
01.02.2017 20:00 0,5 C 96 % 1020,0 hPa 0,0 mm O-SO 3,7 km/h (1 Bft)
01.02.2017 21:00 0,5 C 96 % 1019,7 hPa 0,0 mm O-NO 7,8 km/h (2 Bft)
01.02.2017 22:00 0,5 C 96 % 1019,4 hPa 0,4 mm O 8,2 km/h (2 Bft)
01.02.2017 23:00 0,6 C 96 % 1019,3 hPa 0,0 mm O 7,2 km/h (2 Bft)
02.02.2017 00:00 0,5 C 96 % 1019,3 hPa 0,0 mm O 6,1 km/h (2 Bft)
02.02.2017 01:00 0,4 C 96 % 1019,0 hPa 0,0 mm O 2,9 km/h (1 Bft)
02.02.2017 02:00 0,4 C 96 % 1018,9 hPa 0,0 mm O 0,3 km/h (0 Bft)
02.02.2017 03:00 0,3 C 96 % 1018,7 hPa 0,0 mm SO 2,4 km/h (1 Bft)
02.02.2017 04:00 0,4 C 96 % 1018,7 hPa 0,0 mm SO 2,5 km/h (1 Bft)
02.02.2017 05:00 0,2 C 96 % 1018,6 hPa 0,0 mm SO 3,5 km/h (1 Bft)
02.02.2017 06:00 0,1 C 96 % 1018,4 hPa 0,0 mm SO 2,9 km/h (1 Bft)
02.02.2017 07:00 0,2 C 96 % 1018,4 hPa 0,0 mm SO 1,2 km/h (1 Bft)
02.02.2017 08:00 0,4 C 96 % 1018,2 hPa 0,0 mm SO 0,7 km/h (0 Bft)
02.02.2017 09:00 0,6 C 96 % 1017,9 hPa 0,0 mm SO 3,2 km/h (1 Bft)
02.02.2017 10:00 1,0 C 96 % 1017,8 hPa 0,0 mm SO 0,1 km/h (0 Bft)
02.02.2017 11:00 1,7 C 96 % 1017,2 hPa 0,0 mm S-SO 1,3 km/h (1 Bft)
02.02.2017 12:00 3,2 C 96 % 1016,2 hPa 0,0 mm S-SO 2,7 km/h (1 Bft)
02.02.2017 13:00 3,8 C 94 % 1015,1 hPa 0,0 mm SO 5,5 km/h (1 Bft)
02.02.2017 14:00 2,9 C 94 % 1014,6 hPa 0,0 mm O-SO 9,0 km/h (2 Bft)
02.02.2017 15:00 1,7 C 95 % 1014,4 hPa 0,0 mm O-SO 9,8 km/h (2 Bft)
02.02.2017 16:00 0,7 C 96 % 1014,4 hPa 0,0 mm SO 7,1 km/h (2 Bft)
02.02.2017 17:00 0,4 C 96 % 1014,6 hPa 0,0 mm SO 4,4 km/h (1 Bft)
02.02.2017 18:00 0,2 C 96 % 1014,7 hPa 0,0 mm SO 1,1 km/h (0 Bft)
02.02.2017 19:00 -0,2 C 96 % 1014,5 hPa 0,0 mm SO 0,3 km/h (0 Bft)
02.02.2017 20:00 -0,8 C 96 % 1014,2 hPa 0,0 mm SO 0,0 km/h (0 Bft)
02.02.2017 21:00 -1,0 C 96 % 1013,9 hPa 0,0 mm SO 0,3 km/h (0 Bft)
02.02.2017 22:00 -1,5 C 96 % 1013,5 hPa 0,0 mm SO 0,0 km/h (0 Bft)
02.02.2017 23:00 -1,7 C 96 % 1013,1 hPa 0,0 mm SO 0,0 km/h (0 Bft)
03.02.2017 00:00 -1,9 C 96 % 1012,6 hPa 0,0 mm SO 0,1 km/h (0 Bft)
03.02.2017 01:00 -2,2 C 96 % 1012,3 hPa 0,0 mm SO 1,6 km/h (1 Bft)
03.02.2017 02:00 -2,3 C 96 % 1012,1 hPa 0,0 mm SO 2,9 km/h (1 Bft)
03.02.2017 03:00 -2,4 C 96 % 1011,5 hPa 0,0 mm SO 2,1 km/h (1 Bft)
03.02.2017 04:00 -2,2 C 96 % 1011,1 hPa 0,0 mm SO 2,7 km/h (1 Bft)
03.02.2017 05:00 -1,3 C 96 % 1010,8 hPa 0,0 mm SO 2,1 km/h (1 Bft)
03.02.2017 06:00 -0,6 C 96 % 1010,6 hPa 0,0 mm SO 1,7 km/h (1 Bft)
03.02.2017 07:00 -1,2 C 96 % 1010,4 hPa 0,0 mm SO 0,0 km/h (0 Bft)
03.02.2017 08:00 -1,3 C 96 % 1010,2 hPa 0,0 mm SO 0,4 km/h (0 Bft)
03.02.2017 09:00 0,5 C 96 % 1010,1 hPa 0,0 mm SO 0,8 km/h (0 Bft)
03.02.2017 10:00 2,4 C 96 % 1010,0 hPa 0,0 mm SO 0,5 km/h (0 Bft)
03.02.2017 11:00 3,2 C 94 % 1009,9 hPa 0,0 mm SO 1,7 km/h (1 Bft)
03.02.2017 12:00 3,8 C 91 % 1009,9 hPa 0,0 mm SO 2,0 km/h (1 Bft)
03.02.2017 13:00 2,9 C 90 % 1009,7 hPa 0,0 mm O-SO 7,5 km/h (2 Bft)
03.02.2017 14:00 2,2 C 92 % 1009,4 hPa 0,0 mm O-SO 3,2 km/h (1 Bft)
03.02.2017 15:00 3,0 C 90 % 1009,5 hPa 0,0 mm O-SO 1,7 km/h (1 Bft)
03.02.2017 16:00 2,6 C 91 % 1009,3 hPa 0,0 mm O-SO 1,1 km/h (0 Bft)
03.02.2017 17:00 2,0 C 93 % 1009,4 hPa 0,0 mm O-SO 1,6 km/h (1 Bft)
03.02.2017 18:00 1,5 C 94 % 1009,6 hPa 0,0 mm W 3,3 km/h (1 Bft)
03.02.2017 19:00 1,2 C 95 % 1010,0 hPa 0,0 mm W 4,7 km/h (1 Bft)
03.02.2017 20:00 1,4 C 95 % 1010,3 hPa 0,0 mm W 5,1 km/h (1 Bft)
03.02.2017 21:00 1,7 C 95 % 1010,1 hPa 0,0 mm W 2,8 km/h (1 Bft)
03.02.2017 22:00 1,9 C 95 % 1010,2 hPa 0,0 mm W 3,5 km/h (1 Bft)
03.02.2017 23:00 1,8 C 95 % 1010,3 hPa 0,0 mm W 3,1 km/h (1 Bft)
04.02.2017 00:00 1,9 C 95 % 1010,4 hPa 0,0 mm W 2,1 km/h (1 Bft)
04.02.2017 01:00 1,6 C 95 % 1010,3 hPa 0,0 mm W 1,1 km/h (0 Bft)
04.02.2017 02:00 1,5 C 95 % 1010,5 hPa 0,0 mm W 1,6 km/h (1 Bft)
04.02.2017 03:00 1,6 C 96 % 1010,7 hPa 0,4 mm W 2,8 km/h (1 Bft)
04.02.2017 04:00 1,6 C 96 % 1011,0 hPa 0,0 mm W 1,7 km/h (1 Bft)
04.02.2017 05:00 1,3 C 96 % 1011,1 hPa 0,0 mm W 0,9 km/h (0 Bft)
04.02.2017 06:00 1,2 C 96 % 1010,8 hPa 0,0 mm W 0,8 km/h (0 Bft)
04.02.2017 07:00 0,9 C 96 % 1010,7 hPa 0,0 mm W 0,1 km/h (0 Bft)
04.02.2017 08:00 0,4 C 96 % 1010,1 hPa 0,0 mm W 0,8 km/h (0 Bft)
04.02.2017 09:00 1,7 C 96 % 1008,6 hPa 0,0 mm SW 2,0 km/h (1 Bft)
04.02.2017 10:00 3,7 C 95 % 1007,5 hPa 0,0 mm SW 4,2 km/h (1 Bft)
04.02.2017 11:00 4,5 C 91 % 1006,2 hPa 0,0 mm O-SO 8,6 km/h (2 Bft)
04.02.2017 12:00 5,3 C 87 % 1004,4 hPa 0,0 mm O 11,1 km/h (2 Bft)
04.02.2017 13:00 3,1 C 92 % 1002,2 hPa 0,2 mm O 14,9 km/h (3 Bft)
04.02.2017 14:00 2,4 C 94 % 1001,6 hPa 0,0 mm O 12,2 km/h (2 Bft)
04.02.2017 15:00 1,9 C 95 % 1001,6 hPa 0,0 mm O-SO 10,5 km/h (2 Bft)
04.02.2017 16:00 1,6 C 95 % 1002,1 hPa 0,0 mm SO 3,6 km/h (1 Bft)
04.02.2017 17:00 1,4 C 95 % 1003,1 hPa 0,0 mm W-SW 3,3 km/h (1 Bft)
04.02.2017 18:00 1,7 C 96 % 1004,7 hPa 0,0 mm W-NW 5,9 km/h (2 Bft)
04.02.2017 19:00 2,0 C 95 % 1005,3 hPa 0,0 mm W-NW 4,3 km/h (1 Bft)
04.02.2017 20:00 1,9 C 96 % 1005,8 hPa 0,2 mm W 4,5 km/h (1 Bft)
04.02.2017 21:00 3,0 C 96 % 1006,6 hPa 0,6 mm W 7,8 km/h (2 Bft)
04.02.2017 22:00 2,9 C 95 % 1007,4 hPa 0,0 mm W 0,9 km/h (0 Bft)
04.02.2017 23:00 1,7 C 95 % 1007,8 hPa 0,0 mm W 0,5 km/h (0 Bft)
05.02.2017 00:00 0,8 C 96 % 1008,1 hPa 0,0 mm W 1,3 km/h (1 Bft)
05.02.2017 01:00 1,2 C 96 % 1008,2 hPa 0,0 mm W 3,5 km/h (1 Bft)
05.02.2017 02:00 2,3 C 96 % 1008,4 hPa 0,2 mm W 6,4 km/h (2 Bft)
05.02.2017 03:00 3,9 C 84 % 1008,5 hPa 0,0 mm W 13,4 km/h (3 Bft)
05.02.2017 04:00 4,4 C 74 % 1008,9 hPa 0,0 mm W 15,4 km/h (3 Bft)
05.02.2017 05:00 3,6 C 75 % 1008,9 hPa 0,0 mm W 9,7 km/h (2 Bft)
05.02.2017 06:00 1,2 C 84 % 1008,7 hPa 0,0 mm W 0,0 km/h (0 Bft)
05.02.2017 07:00 -0,5 C 90 % 1008,8 hPa 0,0 mm W 0,0 km/h (0 Bft)
05.02.2017 08:00 -0,1 C 91 % 1008,8 hPa 0,0 mm W 3,1 km/h (1 Bft)
05.02.2017 09:00 2,0 C 84 % 1008,2 hPa 0,0 mm W 1,1 km/h (0 Bft)
05.02.2017 10:00 2,8 C 83 % 1007,0 hPa 0,0 mm O-SO 4,4 km/h (1 Bft)
05.02.2017 11:00 3,9 C 80 % 1005,6 hPa 0,0 mm O 6,7 km/h (2 Bft)
05.02.2017 12:00 4,7 C 77 % 1004,8 hPa 0,0 mm O 5,1 km/h (1 Bft)
05.02.2017 13:00 4,8 C 76 % 1003,9 hPa 0,0 mm SO 7,6 km/h (2 Bft)
05.02.2017 14:00 5,0 C 74 % 1003,2 hPa 0,0 mm O-SO 9,5 km/h (2 Bft)
05.02.2017 15:00 4,5 C 75 % 1002,8 hPa 0,0 mm O-SO 10,1 km/h (2 Bft)
05.02.2017 16:00 4,1 C 75 % 1002,7 hPa 0,0 mm O 12,1 km/h (2 Bft)
05.02.2017 17:00 3,4 C 79 % 1002,9 hPa 0,0 mm O-SO 9,7 km/h (2 Bft)
05.02.2017 18:00 3,0 C 81 % 1003,2 hPa 0,0 mm O-SO 5,2 km/h (1 Bft)
05.02.2017 19:00 2,6 C 84 % 1003,4 hPa 0,0 mm SO 2,4 km/h (1 Bft)
05.02.2017 20:00 2,0 C 87 % 1003,5 hPa 0,0 mm S 0,0 km/h (0 Bft)
05.02.2017 21:00 1,5 C 90 % 1003,1 hPa 0,0 mm S 0,8 km/h (0 Bft)
05.02.2017 22:00 1,0 C 90 % 1003,1 hPa 0,0 mm S 0,0 km/h (0 Bft)
05.02.2017 23:00 0,7 C 92 % 1003,3 hPa 0,0 mm S 0,0 km/h (0 Bft)
Min-Datum _ 30.01.17 05.02.17 04.02.17 - - 30.01.17
_ Min-Zeit 00:30 14:55 14:35 - - 00:00
Minimum _ -8,8 C 69 % 1001,5 hPa - - 0,0 km/h (0 Bft)
Max-Datum _ 04.02.17 30.01.17 30.01.17 31.01.17 - 04.02.17
_ Max-Zeit 12:25 10:40 00:00 10:10 - 21:55
Maximum _ 5,7 C 96 % 1026,8 hPa 2,6 mm - 24,1 km/h
W (4 Bft)
Durchschnitt _ 0,4 C 94 % 1014,3 hPa #20,6 mm SO 3,2 km/h (1 Bft)